This demonstration page uses our WeatherBlox Daily Observations layout. Learn more.

Left ArrowRight Arrow

36.17497, -115.13722

Hourly Observations for May 14, 2016

Temp ( °F °C ) Dew Point ( °F °C ) Humidity (%) Winds ( mph kmh ) Pressure ( in mb ) Visibility ( mi km ) Precip ( " mm )
12:53 am 00:53 Clear 81 27.2 29 -1.7 15 15 S 6 9 29.84 1010 10 16 N/A
1:53 am 01:53 Clear 81 27.2 30 -1.1 16 16 N N/A 29.84 1011 10 16 N/A
2:53 am 02:53 Clear 79 26.1 37 2.8 22 22 WSW 3 6 29.83 1010 10 16 N/A
3:53 am 03:53 Clear 78 25.6 38 3.3 24 24 N N/A 29.83 1010 10 16 N/A
4:53 am 04:53 Clear 76 24.4 39 3.9 26 26 SSW 5 7 29.84 1011 10 16 N/A
5:53 am 05:53 Sunny 74 23.3 40 4.4 29 29 SE 6 9 29.84 1011 10 16 N/A
6:53 am 06:53 Sunny 74 23.3 38 3.3 27 27 SE 3 6 29.85 1011 10 16 N/A
7:53 am 07:53 Sunny 76 24.4 40 4.4 27 27 SSE 9 15 29.86 1011 10 16 N/A
8:53 am 08:53 Sunny 83 28.3 36 2.2 19 19 S 13 20 29.85 1011 10 16 N/A
9:53 am 09:53 Sunny 86 30 33 0.6 15 15 SSE 8 13 29.84 1011 10 16 N/A
10:53 am 10:53 Sunny 88 31.1 32 undefined 13 13 S 7 11 29.83 1010 10 16 N/A
11:53 am 11:53 Sunny 92 33.3 30 -1.1 11 11 SSE 15 24 29.80 1009 10 16 N/A
12:53 pm 12:53 Sunny 94 34.4 34 1.1 12 12 SW 25 41 29.76 1008 10 16 N/A
1:53 pm 13:53 Sunny 96 35.6 34 1.1 11 11 WSW 17 28 29.74 1007 10 16 N/A
2:53 pm 14:53 Sunny 94 34.4 33 0.6 12 12 SW 10 17 29.71 1006 10 16 N/A
3:53 pm 15:53 Sunny 96 35.6 33 0.6 11 11 WSW 15 24 29.66 1004 10 16 N/A
4:53 pm 16:53 Sunny 94 34.4 34 1.1 12 12 WSW 16 26 29.64 1004 10 16 N/A
5:53 pm 17:53 Sunny 93 33.9 34 1.1 12 12 WSW 17 28 29.63 1003 10 16 N/A
6:53 pm 18:53 Sunny 91 32.8 32 undefined 12 12 WSW 15 24 29.63 1003 10 16 N/A
7:53 pm 19:53 Clear 89 31.7 31 -0.6 12 12 WSW 13 20 29.63 1003 10 16 N/A
8:53 pm 20:53 Clear 87 30.6 33 0.6 14 14 SW 6 9 29.63 1004 10 16 N/A
9:53 pm 21:53 Clear 85 29.4 32 undefined 15 15 WSW 14 22 29.65 1004 10 16 N/A
10:53 pm 22:53 Clear 83 28.3 30 -1.1 15 15 SW 13 20 29.65 1004 10 16 N/A
11:53 pm 23:53 Clear 82 27.8 31 -0.6 16 16 SW 13 20 29.65 1004 10 16 N/A

Powered by AerisWeather